Time,TemperatureF,DewpointF,PressureIn,WindDirection,WindDirectionDegrees,WindSpeedMPH,WindSpeedGustMPH,Humidity,HourlyPrecipIn,Conditions,Clouds,dailyrainin,SoftwareType,DateUTC
2013-03-22 00:05:00,29.5,26.0,29.34,WSW,239,0.0,0.0,87,0.00,,,0.00,WXlink_for_OpenVMS,2013-03-22 04:05:00,
2013-03-22 00:10:00,29.5,26.0,29.34,WSW,239,0.0,0.0,87,0.00,,,0.00,WXlink_for_OpenVMS,2013-03-22 04:10:00,
2013-03-22 00:15:00,29.3,26.0,29.34,WSW,239,0.0,0.0,87,0.00,,,0.00,WXlink_for_OpenVMS,2013-03-22 04:15:00,
2013-03-22 00:20:00,28.9,26.0,29.34,WSW,239,0.0,0.0,87,0.00,,,0.00,WXlink_for_OpenVMS,2013-03-22 04:20:00,
2013-03-22 00:25:00,28.8,25.0,29.34,WSW,239,0.0,0.0,87,0.00,,,0.00,WXlink_for_OpenVMS,2013-03-22 04:25:00,
2013-03-22 00:30:00,28.8,25.0,29.34,WSW,239,0.0,0.0,87,0.00,,,0.00,WXlink_for_OpenVMS,2013-03-22 04:30:00,
2013-03-22 00:40:00,28.9,26.0,29.34,WSW,239,0.0,0.0,88,0.00,,,0.00,WXlink_for_OpenVMS,2013-03-22 04:40:00,
2013-03-22 00:45:00,28.9,26.0,29.34,WSW,239,0.0,0.0,88,0.00,,,0.00,WXlink_for_OpenVMS,2013-03-22 04:45:00,
2013-03-22 00:50:00,28.9,26.0,29.34,WSW,239,0.0,0.0,87,0.00,,,0.00,WXlink_for_OpenVMS,2013-03-22 04:50:00,
2013-03-22 00:55:00,28.9,25.0,29.34,WSW,241,0.0,0.0,86,0.00,,,0.00,WXlink_for_OpenVMS,2013-03-22 04:55:00,
2013-03-22 01:05:00,29.1,24.0,29.34,WNW,283,0.0,0.0,82,0.00,,,0.00,WXlink_for_OpenVMS,2013-03-22 05:05:00,
2013-03-22 01:10:00,29.3,24.0,29.34,WNW,302,0.0,0.0,79,0.00,,,0.00,WXlink_for_OpenVMS,2013-03-22 05:10:00,
2013-03-22 01:15:00,29.5,23.0,29.34,WNW,302,0.0,0.0,77,0.00,,,0.00,WXlink_for_OpenVMS,2013-03-22 05:15:00,
2013-03-22 01:20:00,29.5,23.0,29.34,WNW,302,0.0,0.0,75,0.00,,,0.00,WXlink_for_OpenVMS,2013-03-22 05:20:00,
2013-03-22 01:30:00,29.8,22.0,29.34,WNW,302,0.0,3.6,71,0.00,,,0.00,WXlink_for_OpenVMS,2013-03-22 05:30:00,
2013-03-22 01:35:00,29.8,21.0,29.34,WNW,302,3.1,3.1,68,0.00,,,0.00,WXlink_for_OpenVMS,2013-03-22 05:35:00,
2013-03-22 01:45:00,30.0,20.0,29.34,NW,310,3.6,3.6,65,0.00,,,0.00,WXlink_for_OpenVMS,2013-03-22 05:45:00,
2013-03-22 01:50:00,30.2,20.0,29.34,WNW,288,2.7,3.1,65,0.00,,,0.00,WXlink_for_OpenVMS,2013-03-22 05:50:00,
2013-03-22 01:55:00,30.2,19.0,29.34,WNW,289,3.1,4.0,64,0.00,,,0.00,WXlink_for_OpenVMS,2013-03-22 05:55:00,
2013-03-22 02:00:00,30.2,19.0,29.34,WNW,292,3.1,3.1,63,0.00,,,0.00,WXlink_for_OpenVMS,2013-03-22 06:00:00,
2013-03-22 02:05:00,30.2,19.0,29.34,West,276,3.1,3.1,62,0.00,,,0.00,WXlink_for_OpenVMS,2013-03-22 06:05:00,
2013-03-22 02:10:00,30.2,19.0,29.34,West,276,2.7,2.7,62,0.00,,,0.00,WXlink_for_OpenVMS,2013-03-22 06:10:00,
2013-03-22 02:15:00,30.2,19.0,29.34,NW,306,3.6,4.0,62,0.00,,,0.00,WXlink_for_OpenVMS,2013-03-22 06:15:00,
2013-03-22 02:20:00,30.2,18.0,29.34,West,278,3.6,3.6,61,0.00,,,0.00,WXlink_for_OpenVMS,2013-03-22 06:20:00,
2013-03-22 02:25:00,30.2,18.0,29.34,WNW,298,2.7,2.7,61,0.00,,,0.00,WXlink_for_OpenVMS,2013-03-22 06:25:00,
2013-03-22 02:30:00,30.2,18.0,29.34,WNW,287,2.7,2.7,61,0.00,,,0.00,WXlink_for_OpenVMS,2013-03-22 06:30:00,
2013-03-22 02:35:00,30.2,18.0,29.34,WNW,296,3.6,3.6,61,0.00,,,0.00,WXlink_for_OpenVMS,2013-03-22 06:35:00,
2013-03-22 02:40:00,30.2,18.0,29.34,West,262,0.0,0.0,61,0.00,,,0.00,WXlink_for_OpenVMS,2013-03-22 06:40:00,
2013-03-22 02:45:00,30.2,18.0,29.34,WNW,303,2.7,4.0,61,0.00,,,0.00,WXlink_for_OpenVMS,2013-03-22 06:45:00,
2013-03-22 02:50:00,30.2,18.0,29.34,WNW,286,2.7,4.0,60,0.00,,,0.00,WXlink_for_OpenVMS,2013-03-22 06:50:00,
2013-03-22 02:55:00,30.2,18.0,29.34,WNW,301,3.1,4.9,60,0.00,,,0.00,WXlink_for_OpenVMS,2013-03-22 06:55:00,
2013-03-22 03:00:00,30.2,18.0,29.34,WNW,296,2.7,4.0,60,0.00,,,0.00,WXlink_for_OpenVMS,2013-03-22 07:00:00,
2013-03-22 03:05:00,30.2,18.0,29.34,West,270,2.2,0.0,60,0.00,,,0.00,WXlink_for_OpenVMS,2013-03-22 07:05:00,
2013-03-22 03:10:00,30.2,18.0,29.34,West,270,2.2,3.6,60,0.00,,,0.00,WXlink_for_OpenVMS,2013-03-22 07:10:00,
2013-03-22 03:15:00,30.2,18.0,29.34,NW,318,0.0,3.1,60,0.00,,,0.00,WXlink_for_OpenVMS,2013-03-22 07:15:00,
2013-03-22 03:20:00,30.2,18.0,29.34,NW,318,2.2,2.7,60,0.00,,,0.00,WXlink_for_OpenVMS,2013-03-22 07:20:00,
2013-03-22 03:25:00,30.2,18.0,29.34,NW,318,3.1,3.1,60,0.00,,,0.00,WXlink_for_OpenVMS,2013-03-22 07:25:00,
2013-03-22 03:30:00,30.2,18.0,29.34,NW,304,3.1,3.1,60,0.00,,,0.00,WXlink_for_OpenVMS,2013-03-22 07:30:00,
2013-03-22 03:35:00,30.2,18.0,29.34,WNW,303,0.0,0.0,60,0.00,,,0.00,WXlink_for_OpenVMS,2013-03-22 07:35:00,
2013-03-22 03:40:00,30.2,18.0,29.34,WNW,303,0.0,0.0,60,0.00,,,0.00,WXlink_for_OpenVMS,2013-03-22 07:40:00,
2013-03-22 03:45:00,30.2,18.0,29.34,WNW,303,0.0,0.0,60,0.00,,,0.00,WXlink_for_OpenVMS,2013-03-22 07:45:00,
2013-03-22 03:50:00,30.2,18.0,29.34,WNW,303,0.0,0.0,60,0.00,,,0.00,WXlink_for_OpenVMS,2013-03-22 07:50:00,
2013-03-22 03:55:00,30.2,18.0,29.34,WNW,303,0.0,0.0,60,0.00,,,0.00,WXlink_for_OpenVMS,2013-03-22 07:55:00,
2013-03-22 04:00:00,30.2,18.0,29.34,WNW,303,0.0,0.0,60,0.00,,,0.00,WXlink_for_OpenVMS,2013-03-22 08:00:00,
2013-03-22 04:05:00,30.2,18.0,29.34,WNW,303,0.0,0.0,60,0.00,,,0.00,WXlink_for_OpenVMS,2013-03-22 08:05:00,
2013-03-22 04:15:00,30.2,18.0,29.34,WNW,303,0.0,0.0,60,0.00,,,0.00,WXlink_for_OpenVMS,2013-03-22 08:15:00,
2013-03-22 04:20:00,30.2,18.0,29.34,WNW,303,0.0,0.0,60,0.00,,,0.00,WXlink_for_OpenVMS,2013-03-22 08:20:00,
2013-03-22 04:25:00,30.2,18.0,29.34,WNW,303,0.0,0.0,60,0.00,,,0.00,WXlink_for_OpenVMS,2013-03-22 08:25:00,
2013-03-22 04:30:00,30.2,18.0,29.34,WNW,303,0.0,0.0,60,0.00,,,0.00,WXlink_for_OpenVMS,2013-03-22 08:30:00,
2013-03-22 04:35:00,30.2,18.0,29.34,WNW,303,0.0,0.0,60,0.00,,,0.00,WXlink_for_OpenVMS,2013-03-22 08:35:00,
2013-03-22 04:40:00,30.2,18.0,29.34,WNW,303,0.0,0.0,60,0.00,,,0.00,WXlink_for_OpenVMS,2013-03-22 08:40:00,
2013-03-22 04:45:00,30.2,18.0,29.34,WNW,303,0.0,0.0,59,0.00,,,0.00,WXlink_for_OpenVMS,2013-03-22 08:45:00,
2013-03-22 04:50:00,30.0,18.0,29.34,NNW,339,0.0,0.0,60,0.00,,,0.00,WXlink_for_OpenVMS,2013-03-22 08:50:00,
2013-03-22 04:55:00,30.0,18.0,29.34,NNW,339,0.0,0.0,60,0.00,,,0.00,WXlink_for_OpenVMS,2013-03-22 08:55:00,
2013-03-22 05:00:00,30.0,18.0,29.34,NNW,339,0.0,0.0,60,0.00,,,0.00,WXlink_for_OpenVMS,2013-03-22 09:00:00,
2013-03-22 05:05:00,30.0,18.0,29.34,NNW,339,0.0,0.0,60,0.00,,,0.00,WXlink_for_OpenVMS,2013-03-22 09:05:00,
2013-03-22 05:15:00,30.0,18.0,29.34,NW,321,0.0,0.0,60,0.00,,,0.00,WXlink_for_OpenVMS,2013-03-22 09:15:00,
2013-03-22 05:20:00,29.8,18.0,29.34,NW,319,0.0,0.0,60,0.00,,,0.00,WXlink_for_OpenVMS,2013-03-22 09:20:00,
2013-03-22 05:25:00,29.8,18.0,29.34,NW,319,0.0,0.0,60,0.00,,,0.00,WXlink_for_OpenVMS,2013-03-22 09:25:00,
2013-03-22 05:30:00,29.8,18.0,29.34,NW,324,0.0,0.0,60,0.00,,,0.00,WXlink_for_OpenVMS,2013-03-22 09:30:00,
2013-03-22 05:35:00,29.8,18.0,29.34,NW,324,0.0,0.0,60,0.00,,,0.00,WXlink_for_OpenVMS,2013-03-22 09:35:00,
2013-03-22 05:40:00,29.8,18.0,29.34,NW,324,0.0,0.0,60,0.00,,,0.00,WXlink_for_OpenVMS,2013-03-22 09:40:00,
2013-03-22 05:45:00,29.7,17.0,29.34,NW,324,0.0,0.0,60,0.00,,,0.00,WXlink_for_OpenVMS,2013-03-22 09:45:00,
2013-03-22 05:50:00,29.7,17.0,29.34,NW,324,0.0,0.0,60,0.00,,,0.00,WXlink_for_OpenVMS,2013-03-22 09:50:00,
2013-03-22 05:55:00,29.7,17.0,29.34,NW,324,0.0,0.0,60,0.00,,,0.00,WXlink_for_OpenVMS,2013-03-22 09:55:00,
2013-03-22 06:00:00,29.7,17.0,29.34,NW,324,0.0,0.0,60,0.00,,,0.00,WXlink_for_OpenVMS,2013-03-22 10:00:00,
2013-03-22 06:05:00,29.5,17.0,29.34,NW,324,0.0,0.0,60,0.00,,,0.00,WXlink_for_OpenVMS,2013-03-22 10:05:00,
2013-03-22 06:10:00,29.5,17.0,29.34,NW,324,0.0,0.0,60,0.00,,,0.00,WXlink_for_OpenVMS,2013-03-22 10:10:00,
2013-03-22 06:15:00,29.5,17.0,29.37,NW,324,0.0,0.0,60,0.00,,,0.00,WXlink_for_OpenVMS,2013-03-22 10:15:00,
2013-03-22 06:20:00,29.5,17.0,29.37,NW,324,0.0,0.0,60,0.00,,,0.00,WXlink_for_OpenVMS,2013-03-22 10:20:00,
2013-03-22 06:25:00,29.5,17.0,29.37,NW,324,0.0,0.0,60,0.00,,,0.00,WXlink_for_OpenVMS,2013-03-22 10:25:00,
2013-03-22 06:30:00,29.5,18.0,29.37,NW,324,0.0,0.0,61,0.00,,,0.00,WXlink_for_OpenVMS,2013-03-22 10:30:00,
2013-03-22 06:35:00,29.5,18.0,29.37,NW,324,0.0,0.0,61,0.00,,,0.00,WXlink_for_OpenVMS,2013-03-22 10:35:00,
2013-03-22 06:40:00,29.5,18.0,29.37,NW,324,0.0,0.0,61,0.00,,,0.00,WXlink_for_OpenVMS,2013-03-22 10:40:00,
2013-03-22 06:45:00,29.5,18.0,29.37,NW,324,0.0,0.0,61,0.00,,,0.00,WXlink_for_OpenVMS,2013-03-22 10:45:00,
2013-03-22 06:50:00,29.3,18.0,29.37,NW,324,0.0,0.0,61,0.00,,,0.00,WXlink_for_OpenVMS,2013-03-22 10:50:00,
2013-03-22 06:55:00,29.3,18.0,29.37,NW,324,0.0,0.0,61,0.00,,,0.00,WXlink_for_OpenVMS,2013-03-22 10:55:00,
2013-03-22 07:00:00,29.3,18.0,29.37,NW,324,0.0,0.0,61,0.00,,,0.00,WXlink_for_OpenVMS,2013-03-22 11:00:00,
2013-03-22 07:05:00,29.1,18.0,29.37,NW,324,0.0,0.0,62,0.00,,,0.00,WXlink_for_OpenVMS,2013-03-22 11:05:00,
2013-03-22 07:10:00,29.1,18.0,29.37,NW,324,0.0,0.0,62,0.00,,,0.00,WXlink_for_OpenVMS,2013-03-22 11:10:00,
2013-03-22 07:15:00,28.9,18.0,29.37,NW,324,0.0,0.0,62,0.00,,,0.00,WXlink_for_OpenVMS,2013-03-22 11:15:00,
2013-03-22 07:20:00,28.9,18.0,29.37,NW,324,0.0,0.0,62,0.00,,,0.00,WXlink_for_OpenVMS,2013-03-22 11:20:00,
2013-03-22 07:25:00,28.9,18.0,29.37,NW,324,0.0,0.0,62,0.00,,,0.00,WXlink_for_OpenVMS,2013-03-22 11:25:00,
2013-03-22 07:30:00,28.9,18.0,29.37,NW,324,0.0,0.0,63,0.00,,,0.00,WXlink_for_OpenVMS,2013-03-22 11:30:00,
2013-03-22 07:35:00,28.8,18.0,29.37,NW,324,0.0,0.0,64,0.00,,,0.00,WXlink_for_OpenVMS,2013-03-22 11:35:00,
2013-03-22 07:45:00,28.8,18.0,29.37,NW,324,0.0,0.0,63,0.00,,,0.00,WXlink_for_OpenVMS,2013-03-22 11:45:00,
2013-03-22 07:50:00,29.1,18.0,29.37,NW,324,0.0,0.0,63,0.00,,,0.00,WXlink_for_OpenVMS,2013-03-22 11:50:00,
2013-03-22 07:55:00,29.1,18.0,29.37,NW,324,0.0,0.0,63,0.00,,,0.00,WXlink_for_OpenVMS,2013-03-22 11:55:00,
2013-03-22 08:00:00,29.3,18.0,29.40,NW,324,0.0,0.0,63,0.00,,,0.00,WXlink_for_OpenVMS,2013-03-22 12:00:00,
2013-03-22 08:05:00,29.5,18.0,29.40,NW,309,0.0,0.0,62,0.00,,,0.00,WXlink_for_OpenVMS,2013-03-22 12:05:00,
2013-03-22 08:10:00,29.5,18.0,29.40,WNW,303,0.0,0.0,62,0.00,,,0.00,WXlink_for_OpenVMS,2013-03-22 12:10:00,
2013-03-22 08:15:00,29.8,18.0,29.40,WNW,296,3.6,3.6,61,0.00,,,0.00,WXlink_for_OpenVMS,2013-03-22 12:15:00,
2013-03-22 08:25:00,30.2,18.0,29.40,WNW,294,3.6,3.6,59,0.00,,,0.00,WXlink_for_OpenVMS,2013-03-22 12:25:00,
2013-03-22 08:30:00,30.6,18.0,29.40,NW,309,3.6,3.6,58,0.00,,,0.00,WXlink_for_OpenVMS,2013-03-22 12:30:00,
2013-03-22 08:35:00,30.9,18.0,29.40,WNW,303,3.6,3.6,58,0.00,,,0.00,WXlink_for_OpenVMS,2013-03-22 12:35:00,
2013-03-22 08:40:00,31.1,18.0,29.40,NW,320,2.7,2.7,58,0.00,,,0.00,WXlink_for_OpenVMS,2013-03-22 12:40:00,
2013-03-22 08:45:00,31.5,18.0,29.40,West,278,3.1,3.1,58,0.00,,,0.00,WXlink_for_OpenVMS,2013-03-22 12:45:00,
2013-03-22 08:50:00,31.5,18.0,29.40,West,280,2.2,2.7,58,0.00,,,0.00,WXlink_for_OpenVMS,2013-03-22 12:50:00,
2013-03-22 08:55:00,31.6,19.0,29.40,WNW,289,0.0,0.0,58,0.00,,,0.00,WXlink_for_OpenVMS,2013-03-22 12:55:00,
2013-03-22 09:00:00,31.6,18.0,29.40,WNW,297,4.0,4.0,57,0.00,,,0.00,WXlink_for_OpenVMS,2013-03-22 13:00:00,
2013-03-22 09:05:00,31.6,18.0,29.40,West,277,3.1,3.6,57,0.00,,,0.00,WXlink_for_OpenVMS,2013-03-22 13:05:00,
2013-03-22 09:10:00,31.8,18.0,29.40,NNW,328,3.6,3.6,57,0.00,,,0.00,WXlink_for_OpenVMS,2013-03-22 13:10:00,
2013-03-22 09:15:00,32.2,18.0,29.40,West,279,3.6,5.4,56,0.00,,,0.00,WXlink_for_OpenVMS,2013-03-22 13:15:00,
2013-03-22 09:20:00,32.2,18.0,29.40,NW,316,3.1,4.0,56,0.00,,,0.00,WXlink_for_OpenVMS,2013-03-22 13:20:00,
2013-03-22 09:25:00,32.4,18.0,29.40,NNW,329,0.0,0.0,56,0.00,,,0.00,WXlink_for_OpenVMS,2013-03-22 13:25:00,
2013-03-22 09:35:00,32.7,18.0,29.40,NNW,328,3.1,3.6,55,0.00,,,0.00,WXlink_for_OpenVMS,2013-03-22 13:35:00,
2013-03-22 09:40:00,32.9,18.0,29.40,NW,316,4.5,4.5,54,0.00,,,0.00,WXlink_for_OpenVMS,2013-03-22 13:40:00,
2013-03-22 09:45:00,33.1,18.0,29.40,NW,322,4.0,4.9,53,0.00,,,0.00,WXlink_for_OpenVMS,2013-03-22 13:45:00,
2013-03-22 09:50:00,33.1,17.0,29.40,NW,322,3.1,4.0,52,0.00,,,0.00,WXlink_for_OpenVMS,2013-03-22 13:50:00,
2013-03-22 09:55:00,33.1,17.0,29.40,WNW,299,3.6,0.0,52,0.00,,,0.00,WXlink_for_OpenVMS,2013-03-22 13:55:00,
2013-03-22 10:00:00,33.3,17.0,29.40,NW,326,0.0,0.0,51,0.00,,,0.00,WXlink_for_OpenVMS,2013-03-22 14:00:00,
2013-03-22 10:05:00,33.6,17.0,29.40,WSW,241,3.6,4.0,51,0.00,,,0.00,WXlink_for_OpenVMS,2013-03-22 14:05:00,
2013-03-22 10:10:00,33.8,18.0,29.40,WNW,285,0.0,0.0,51,0.00,,,0.00,WXlink_for_OpenVMS,2013-03-22 14:10:00,
2013-03-22 10:15:00,34.0,18.0,29.40,NW,311,0.0,0.0,51,0.00,,,0.00,WXlink_for_OpenVMS,2013-03-22 14:15:00,
2013-03-22 10:20:00,34.2,17.0,29.40,NW,315,3.1,3.1,50,0.00,,,0.00,WXlink_for_OpenVMS,2013-03-22 14:20:00,
2013-03-22 10:25:00,34.2,17.0,29.40,SW,218,3.1,3.1,50,0.00,,,0.00,WXlink_for_OpenVMS,2013-03-22 14:25:00,
2013-03-22 10:30:00,34.3,18.0,29.40,NW,320,3.6,3.6,50,0.00,,,0.00,WXlink_for_OpenVMS,2013-03-22 14:30:00,
2013-03-22 10:35:00,34.5,17.0,29.40,NW,305,3.6,3.6,49,0.00,,,0.00,WXlink_for_OpenVMS,2013-03-22 14:35:00,
2013-03-22 10:40:00,34.5,17.0,29.40,NW,326,3.1,3.6,49,0.00,,,0.00,WXlink_for_OpenVMS,2013-03-22 14:40:00,
2013-03-22 10:45:00,34.7,17.0,29.40,NW,321,0.0,0.0,49,0.00,,,0.00,WXlink_for_OpenVMS,2013-03-22 14:45:00,
2013-03-22 10:55:00,35.4,18.0,29.40,WNW,301,0.0,5.4,49,0.00,,,0.00,WXlink_for_OpenVMS,2013-03-22 14:55:00,
2013-03-22 11:00:00,35.6,18.0,29.40,NNW,333,2.7,0.0,49,0.00,,,0.00,WXlink_for_OpenVMS,2013-03-22 15:00:00,
2013-03-22 11:05:00,35.8,18.0,29.40,WSW,256,0.0,0.0,49,0.00,,,0.00,WXlink_for_OpenVMS,2013-03-22 15:05:00,
2013-03-22 11:10:00,35.8,18.0,29.40,SW,230,2.7,2.7,49,0.00,,,0.00,WXlink_for_OpenVMS,2013-03-22 15:10:00,
2013-03-22 11:15:00,36.1,19.0,29.40,WNW,287,3.1,3.6,49,0.00,,,0.00,WXlink_for_OpenVMS,2013-03-22 15:15:00,
2013-03-22 11:20:00,36.3,19.0,29.40,WNW,297,3.1,3.1,49,0.00,,,0.00,WXlink_for_OpenVMS,2013-03-22 15:20:00,
2013-03-22 11:25:00,36.7,19.0,29.40,SSW,204,4.5,4.5,48,0.00,,,0.00,WXlink_for_OpenVMS,2013-03-22 15:25:00,
2013-03-22 11:30:00,36.7,19.0,29.40,WNW,298,2.7,3.6,48,0.00,,,0.00,WXlink_for_OpenVMS,2013-03-22 15:30:00,
2013-03-22 11:35:00,36.9,19.0,29.40,WNW,295,3.6,3.6,48,0.00,,,0.00,WXlink_for_OpenVMS,2013-03-22 15:35:00,
2013-03-22 11:40:00,36.9,19.0,29.40,SW,214,4.0,4.0,47,0.00,,,0.00,WXlink_for_OpenVMS,2013-03-22 15:40:00,
2013-03-22 11:50:00,37.6,19.0,29.40,SW,221,2.7,2.7,47,0.00,,,0.00,WXlink_for_OpenVMS,2013-03-22 15:50:00,
2013-03-22 11:55:00,37.8,19.0,29.40,West,280,3.1,0.0,46,0.00,,,0.00,WXlink_for_OpenVMS,2013-03-22 15:55:00,
2013-03-22 12:00:00,38.1,19.0,29.40,WSW,241,3.6,3.6,46,0.00,,,0.00,WXlink_for_OpenVMS,2013-03-22 16:00:00,
2013-03-22 12:05:00,37.9,19.0,29.40,SSW,208,3.1,4.0,46,0.00,,,0.00,WXlink_for_OpenVMS,2013-03-22 16:05:00,
2013-03-22 12:10:00,37.9,19.0,29.40,SW,217,0.0,3.1,46,0.00,,,0.00,WXlink_for_OpenVMS,2013-03-22 16:10:00,
2013-03-22 12:15:00,38.3,19.0,29.40,WSW,249,3.6,3.6,46,0.00,,,0.00,WXlink_for_OpenVMS,2013-03-22 16:15:00,
2013-03-22 12:20:00,38.8,19.0,29.40,West,264,3.1,4.0,45,0.00,,,0.00,WXlink_for_OpenVMS,2013-03-22 16:20:00,
2013-03-22 12:25:00,38.8,19.0,29.40,SW,214,3.6,3.6,44,0.00,,,0.00,WXlink_for_OpenVMS,2013-03-22 16:25:00,
2013-03-22 12:30:00,38.8,19.0,29.37,SW,230,4.9,6.3,44,0.00,,,0.00,WXlink_for_OpenVMS,2013-03-22 16:30:00,
2013-03-22 12:35:00,38.7,19.0,29.37,SSW,200,4.9,4.9,45,0.00,,,0.00,WXlink_for_OpenVMS,2013-03-22 16:35:00,
2013-03-22 12:45:00,38.7,19.0,29.40,WSW,253,3.6,3.6,44,0.00,,,0.00,WXlink_for_OpenVMS,2013-03-22 16:45:00,
2013-03-22 12:50:00,38.8,19.0,29.40,SSW,211,4.0,5.4,44,0.00,,,0.00,WXlink_for_OpenVMS,2013-03-22 16:50:00,
2013-03-22 12:55:00,38.8,19.0,29.40,West,263,3.6,3.6,44,0.00,,,0.00,WXlink_for_OpenVMS,2013-03-22 16:55:00,
2013-03-22 13:00:00,39.4,19.0,29.37,WSW,250,3.6,4.0,44,0.00,,,0.00,WXlink_for_OpenVMS,2013-03-22 17:00:00,
2013-03-22 13:05:00,39.7,20.0,29.37,West,264,4.5,4.5,44,0.00,,,0.00,WXlink_for_OpenVMS,2013-03-22 17:05:00,
2013-03-22 13:10:00,40.1,20.0,29.37,WSW,245,3.6,4.0,44,0.00,,,0.00,WXlink_for_OpenVMS,2013-03-22 17:10:00,
2013-03-22 13:15:00,40.5,20.0,29.37,WNW,302,4.5,4.5,44,0.00,,,0.00,WXlink_for_OpenVMS,2013-03-22 17:15:00,
2013-03-22 13:20:00,40.8,20.0,29.37,SW,235,4.0,0.0,43,0.00,,,0.00,WXlink_for_OpenVMS,2013-03-22 17:20:00,
2013-03-22 13:25:00,41.2,20.0,29.37,WSW,241,4.0,4.0,43,0.00,,,0.00,WXlink_for_OpenVMS,2013-03-22 17:25:00,
2013-03-22 13:30:00,41.0,20.0,29.37,NW,324,4.5,5.8,43,0.00,,,0.00,WXlink_for_OpenVMS,2013-03-22 17:30:00,
2013-03-22 13:35:00,40.6,19.0,29.37,WNW,293,4.9,4.9,42,0.00,,,0.00,WXlink_for_OpenVMS,2013-03-22 17:35:00,
2013-03-22 13:40:00,40.3,19.0,29.37,West,278,4.9,5.4,42,0.00,,,0.00,WXlink_for_OpenVMS,2013-03-22 17:40:00,
2013-03-22 13:45:00,40.3,20.0,29.37,West,262,4.0,4.0,43,0.00,,,0.00,WXlink_for_OpenVMS,2013-03-22 17:45:00,
2013-03-22 13:50:00,40.6,20.0,29.37,WSW,253,5.4,5.4,43,0.00,,,0.00,WXlink_for_OpenVMS,2013-03-22 17:50:00,
2013-03-22 14:00:00,39.9,19.0,29.37,WNW,293,4.9,4.9,42,0.00,,,0.00,WXlink_for_OpenVMS,2013-03-22 18:00:00,
2013-03-22 14:05:00,39.4,19.0,29.37,NW,306,3.1,4.0,43,0.00,,,0.00,WXlink_for_OpenVMS,2013-03-22 18:05:00,
2013-03-22 14:10:00,38.8,18.0,29.37,West,260,4.5,4.5,43,0.00,,,0.00,WXlink_for_OpenVMS,2013-03-22 18:10:00,
2013-03-22 14:15:00,38.7,18.0,29.37,SW,229,4.0,4.0,43,0.00,,,0.00,WXlink_for_OpenVMS,2013-03-22 18:15:00,
2013-03-22 14:20:00,38.7,18.0,29.37,SW,231,4.0,5.8,43,0.00,,,0.00,WXlink_for_OpenVMS,2013-03-22 18:20:00,
2013-03-22 14:25:00,38.5,18.0,29.37,SW,222,4.9,4.9,44,0.00,,,0.00,WXlink_for_OpenVMS,2013-03-22 18:25:00,
2013-03-22 14:30:00,38.5,18.0,29.37,NNW,338,4.9,5.4,44,0.00,,,0.00,WXlink_for_OpenVMS,2013-03-22 18:30:00,
2013-03-22 14:35:00,38.5,18.0,29.37,NW,311,4.9,5.4,44,0.00,,,0.00,WXlink_for_OpenVMS,2013-03-22 18:35:00,
2013-03-22 14:45:00,37.6,19.0,29.37,WNW,301,3.1,4.0,46,0.00,,,0.00,WXlink_for_OpenVMS,2013-03-22 18:45:00,
2013-03-22 14:50:00,38.3,19.0,29.37,SW,224,2.2,2.7,46,0.00,,,0.00,WXlink_for_OpenVMS,2013-03-22 18:50:00,
2013-03-22 14:55:00,39.4,20.0,29.37,NW,310,4.5,4.5,46,0.00,,,0.00,WXlink_for_OpenVMS,2013-03-22 18:55:00,
2013-03-22 15:00:00,39.2,20.0,29.37,SW,220,3.6,3.6,46,0.00,,,0.00,WXlink_for_OpenVMS,2013-03-22 19:00:00,
2013-03-22 15:05:00,38.7,20.0,29.37,WNW,295,4.9,5.4,46,0.00,,,0.00,WXlink_for_OpenVMS,2013-03-22 19:05:00,
2013-03-22 15:10:00,38.7,20.0,29.37,NNW,329,2.7,3.1,46,0.00,,,0.00,WXlink_for_OpenVMS,2013-03-22 19:10:00,
2013-03-22 15:15:00,39.0,20.0,29.34,WNW,289,0.0,0.0,46,0.00,,,0.00,WXlink_for_OpenVMS,2013-03-22 19:15:00,
2013-03-22 15:20:00,38.8,20.0,29.34,NNW,332,4.5,4.9,46,0.00,,,0.00,WXlink_for_OpenVMS,2013-03-22 19:20:00,
2013-03-22 15:25:00,38.7,20.0,29.34,WNW,289,3.1,3.6,46,0.00,,,0.00,WXlink_for_OpenVMS,2013-03-22 19:25:00,
2013-03-22 15:30:00,38.5,19.0,29.37,WNW,300,3.1,3.6,46,0.00,,,0.00,WXlink_for_OpenVMS,2013-03-22 19:30:00,
2013-03-22 15:35:00,38.1,19.0,29.37,NNW,338,2.7,5.8,46,0.00,,,0.00,WXlink_for_OpenVMS,2013-03-22 19:35:00,
2013-03-22 15:45:00,37.8,19.0,29.37,NW,321,3.6,4.0,46,0.00,,,0.00,WXlink_for_OpenVMS,2013-03-22 19:45:00,
2013-03-22 15:50:00,37.9,19.0,29.37,NW,306,4.0,4.0,47,0.00,,,0.00,WXlink_for_OpenVMS,2013-03-22 19:50:00,
2013-03-22 15:55:00,38.3,20.0,29.37,WSW,248,2.7,4.0,47,0.00,,,0.00,WXlink_for_OpenVMS,2013-03-22 19:55:00,
2013-03-22 16:00:00,38.8,20.0,29.37,WNW,297,4.9,5.4,47,0.00,,,0.00,WXlink_for_OpenVMS,2013-03-22 20:00:00,
2013-03-22 16:05:00,39.4,21.0,29.37,West,280,4.0,4.0,47,0.00,,,0.00,WXlink_for_OpenVMS,2013-03-22 20:05:00,
2013-03-22 16:10:00,39.4,21.0,29.37,WSW,252,3.6,5.4,47,0.00,,,0.00,WXlink_for_OpenVMS,2013-03-22 20:10:00,
2013-03-22 16:15:00,39.7,21.0,29.37,WNW,297,3.6,3.6,47,0.00,,,0.00,WXlink_for_OpenVMS,2013-03-22 20:15:00,
2013-03-22 16:20:00,39.4,21.0,29.37,SW,221,3.6,6.3,47,0.00,,,0.00,WXlink_for_OpenVMS,2013-03-22 20:20:00,
2013-03-22 16:25:00,38.7,20.0,29.37,WSW,242,2.7,3.6,47,0.00,,,0.00,WXlink_for_OpenVMS,2013-03-22 20:25:00,
2013-03-22 16:30:00,38.1,20.0,29.37,West,269,3.6,3.6,47,0.00,,,0.00,WXlink_for_OpenVMS,2013-03-22 20:30:00,
2013-03-22 16:35:00,37.8,20.0,29.37,WNW,287,4.9,4.9,48,0.00,,,0.00,WXlink_for_OpenVMS,2013-03-22 20:35:00,
2013-03-22 16:40:00,37.6,19.0,29.37,WNW,302,4.9,4.9,47,0.00,,,0.00,WXlink_for_OpenVMS,2013-03-22 20:40:00,
2013-03-22 16:50:00,37.2,19.0,29.37,West,263,4.0,4.0,48,0.00,,,0.00,WXlink_for_OpenVMS,2013-03-22 20:50:00,
2013-03-22 16:55:00,37.2,19.0,29.37,WNW,297,4.5,4.5,47,0.00,,,0.00,WXlink_for_OpenVMS,2013-03-22 20:55:00,
2013-03-22 17:00:00,37.2,19.0,29.37,WNW,285,4.5,4.5,48,0.00,,,0.00,WXlink_for_OpenVMS,2013-03-22 21:00:00,
2013-03-22 17:05:00,37.0,19.0,29.37,West,278,2.7,3.6,48,0.00,,,0.00,WXlink_for_OpenVMS,2013-03-22 21:05:00,
2013-03-22 17:10:00,37.0,20.0,29.37,West,278,3.6,3.6,49,0.00,,,0.00,WXlink_for_OpenVMS,2013-03-22 21:10:00,
2013-03-22 17:15:00,36.9,19.0,29.37,SW,234,0.0,0.0,49,0.00,,,0.00,WXlink_for_OpenVMS,2013-03-22 21:15:00,
2013-03-22 17:20:00,37.0,20.0,29.37,WNW,295,0.0,0.0,49,0.00,,,0.00,WXlink_for_OpenVMS,2013-03-22 21:20:00,
2013-03-22 17:25:00,36.9,19.0,29.37,WNW,295,0.0,0.0,49,0.00,,,0.00,WXlink_for_OpenVMS,2013-03-22 21:25:00,
2013-03-22 17:30:00,36.9,19.0,29.37,West,260,2.7,2.7,49,0.00,,,0.00,WXlink_for_OpenVMS,2013-03-22 21:30:00,
2013-03-22 17:40:00,37.2,20.0,29.37,SW,236,3.1,3.1,49,0.00,,,0.00,WXlink_for_OpenVMS,2013-03-22 21:40:00,
2013-03-22 17:45:00,37.4,20.0,29.37,West,265,3.6,3.6,49,0.00,,,0.00,WXlink_for_OpenVMS,2013-03-22 21:45:00,
2013-03-22 17:50:00,37.6,20.0,29.37,WSW,238,4.5,6.3,48,0.00,,,0.00,WXlink_for_OpenVMS,2013-03-22 21:50:00,
2013-03-22 17:55:00,37.8,20.0,29.37,SW,233,3.6,3.6,48,0.00,,,0.00,WXlink_for_OpenVMS,2013-03-22 21:55:00,
2013-03-22 18:00:00,37.9,20.0,29.40,West,273,3.1,3.6,48,0.00,,,0.00,WXlink_for_OpenVMS,2013-03-22 22:00:00,
2013-03-22 18:05:00,37.9,20.0,29.40,WSW,250,4.5,5.4,48,0.00,,,0.00,WXlink_for_OpenVMS,2013-03-22 22:05:00,
2013-03-22 18:10:00,37.9,20.0,29.40,WSW,254,4.5,5.8,48,0.00,,,0.00,WXlink_for_OpenVMS,2013-03-22 22:10:00,
2013-03-22 18:15:00,37.6,20.0,29.40,WSW,256,4.5,4.5,48,0.00,,,0.00,WXlink_for_OpenVMS,2013-03-22 22:15:00,
2013-03-22 18:20:00,37.4,19.0,29.40,WSW,241,3.1,4.0,48,0.00,,,0.00,WXlink_for_OpenVMS,2013-03-22 22:20:00,
2013-03-22 18:30:00,36.9,19.0,29.40,WSW,251,4.0,4.0,49,0.00,,,0.00,WXlink_for_OpenVMS,2013-03-22 22:30:00,
2013-03-22 18:35:00,36.9,19.0,29.40,WNW,284,4.5,5.8,49,0.00,,,0.00,WXlink_for_OpenVMS,2013-03-22 22:35:00,
2013-03-22 18:40:00,36.7,19.0,29.40,SW,235,3.6,4.0,49,0.00,,,0.00,WXlink_for_OpenVMS,2013-03-22 22:40:00,
2013-03-22 18:45:00,36.7,19.0,29.40,West,270,2.2,3.1,49,0.00,,,0.00,WXlink_for_OpenVMS,2013-03-22 22:45:00,
2013-03-22 18:50:00,36.3,19.0,29.40,SW,236,2.7,2.7,49,0.00,,,0.00,WXlink_for_OpenVMS,2013-03-22 22:50:00,
2013-03-22 18:55:00,36.1,19.0,29.40,SW,215,0.0,0.0,50,0.00,,,0.00,WXlink_for_OpenVMS,2013-03-22 22:55:00,
2013-03-22 19:00:00,36.1,19.0,29.40,WSW,252,2.7,4.9,50,0.00,,,0.00,WXlink_for_OpenVMS,2013-03-22 23:00:00,
2013-03-22 19:05:00,36.0,19.0,29.40,West,279,4.9,4.9,50,0.00,,,0.00,WXlink_for_OpenVMS,2013-03-22 23:05:00,
2013-03-22 19:10:00,35.8,19.0,29.40,West,262,3.1,3.1,50,0.00,,,0.00,WXlink_for_OpenVMS,2013-03-22 23:10:00,
2013-03-22 19:15:00,35.6,19.0,29.43,West,273,0.0,0.0,51,0.00,,,0.00,WXlink_for_OpenVMS,2013-03-22 23:15:00,
2013-03-22 19:20:00,35.6,19.0,29.43,SW,235,3.1,3.6,51,0.00,,,0.00,WXlink_for_OpenVMS,2013-03-22 23:20:00,
2013-03-22 19:25:00,35.4,19.0,29.43,West,271,3.1,3.1,51,0.00,,,0.00,WXlink_for_OpenVMS,2013-03-22 23:25:00,
2013-03-22 19:30:00,35.4,19.0,29.43,WSW,239,4.9,5.4,51,0.00,,,0.00,WXlink_for_OpenVMS,2013-03-22 23:30:00,
2013-03-22 19:35:00,35.4,19.0,29.43,SW,227,3.6,4.0,51,0.00,,,0.00,WXlink_for_OpenVMS,2013-03-22 23:35:00,
2013-03-22 19:45:00,35.1,19.0,29.43,SW,223,0.0,0.0,51,0.00,,,0.00,WXlink_for_OpenVMS,2013-03-22 23:45:00,
2013-03-22 19:50:00,35.1,19.0,29.43,WSW,240,0.0,0.0,51,0.00,,,0.00,WXlink_for_OpenVMS,2013-03-22 23:50:00,
2013-03-22 19:55:00,34.9,19.0,29.43,WSW,258,2.7,2.7,52,0.00,,,0.00,WXlink_for_OpenVMS,2013-03-22 23:55:00,
2013-03-22 20:00:00,34.7,19.0,29.43,WSW,254,3.1,3.1,52,0.00,,,0.00,WXlink_for_OpenVMS,2013-03-23 00:00:00,
2013-03-22 20:05:00,34.7,19.0,29.43,WSW,239,2.7,3.1,52,0.00,,,0.00,WXlink_for_OpenVMS,2013-03-23 00:05:00,
2013-03-22 20:10:00,34.5,19.0,29.43,West,265,2.7,4.0,53,0.00,,,0.00,WXlink_for_OpenVMS,2013-03-23 00:10:00,
2013-03-22 20:15:00,34.5,19.0,29.43,WSW,238,2.2,0.0,53,0.00,,,0.00,WXlink_for_OpenVMS,2013-03-23 00:15:00,
2013-03-22 20:20:00,34.5,19.0,29.43,WSW,254,0.0,0.0,53,0.00,,,0.00,WXlink_for_OpenVMS,2013-03-23 00:20:00,
2013-03-22 20:25:00,34.3,19.0,29.43,SW,232,0.0,0.0,53,0.00,,,0.00,WXlink_for_OpenVMS,2013-03-23 00:25:00,
2013-03-22 20:30:00,34.3,19.0,29.43,SW,235,2.2,2.7,53,0.00,,,0.00,WXlink_for_OpenVMS,2013-03-23 00:30:00,
2013-03-22 20:40:00,34.3,19.0,29.43,West,260,4.0,4.0,53,0.00,,,0.00,WXlink_for_OpenVMS,2013-03-23 00:40:00,
2013-03-22 20:45:00,34.3,19.0,29.46,SW,232,0.0,4.0,53,0.00,,,0.00,WXlink_for_OpenVMS,2013-03-23 00:45:00,
2013-03-22 20:50:00,34.2,19.0,29.46,SW,219,3.1,3.6,53,0.00,,,0.00,WXlink_for_OpenVMS,2013-03-23 00:50:00,
2013-03-22 20:55:00,34.2,19.0,29.46,WSW,248,2.7,3.1,53,0.00,,,0.00,WXlink_for_OpenVMS,2013-03-23 00:55:00,
2013-03-22 21:00:00,34.2,19.0,29.46,WSW,248,0.0,0.0,53,0.00,,,0.00,WXlink_for_OpenVMS,2013-03-23 01:00:00,
2013-03-22 21:05:00,34.0,19.0,29.46,SW,220,0.0,0.0,53,0.00,,,0.00,WXlink_for_OpenVMS,2013-03-23 01:05:00,
2013-03-22 21:10:00,34.0,19.0,29.46,WNW,293,4.0,4.0,53,0.00,,,0.00,WXlink_for_OpenVMS,2013-03-23 01:10:00,
2013-03-22 21:15:00,33.8,18.0,29.46,WSW,257,2.2,3.1,53,0.00,,,0.00,WXlink_for_OpenVMS,2013-03-23 01:15:00,
2013-03-22 21:20:00,33.8,18.0,29.46,WNW,288,2.2,3.1,53,0.00,,,0.00,WXlink_for_OpenVMS,2013-03-23 01:20:00,
2013-03-22 21:25:00,33.6,18.0,29.46,WNW,284,0.0,0.0,53,0.00,,,0.00,WXlink_for_OpenVMS,2013-03-23 01:25:00,
2013-03-22 21:30:00,33.6,18.0,29.46,WNW,284,0.0,0.0,53,0.00,,,0.00,WXlink_for_OpenVMS,2013-03-23 01:30:00,
2013-03-22 21:35:00,33.3,18.0,29.46,West,279,3.6,3.6,53,0.00,,,0.00,WXlink_for_OpenVMS,2013-03-23 01:35:00,
2013-03-22 21:45:00,33.1,18.0,29.46,WSW,238,3.1,3.1,53,0.00,,,0.00,WXlink_for_OpenVMS,2013-03-23 01:45:00,
2013-03-22 21:50:00,33.1,18.0,29.46,WSW,257,3.6,3.6,53,0.00,,,0.00,WXlink_for_OpenVMS,2013-03-23 01:50:00,
2013-03-22 21:55:00,33.1,18.0,29.46,West,272,3.6,3.6,53,0.00,,,0.00,WXlink_for_OpenVMS,2013-03-23 01:55:00,
2013-03-22 22:00:00,32.9,18.0,29.46,SW,232,3.6,5.8,53,0.00,,,0.00,WXlink_for_OpenVMS,2013-03-23 02:00:00,
2013-03-22 22:05:00,32.9,18.0,29.46,WSW,251,4.0,4.9,53,0.00,,,0.00,WXlink_for_OpenVMS,2013-03-23 02:05:00,
2013-03-22 22:10:00,32.7,17.0,29.46,WSW,240,4.9,4.9,53,0.00,,,0.00,WXlink_for_OpenVMS,2013-03-23 02:10:00,
2013-03-22 22:15:00,32.7,18.0,29.46,West,263,3.1,5.4,54,0.00,,,0.00,WXlink_for_OpenVMS,2013-03-23 02:15:00,
2013-03-22 22:20:00,32.5,18.0,29.46,SW,236,4.5,4.5,54,0.00,,,0.00,WXlink_for_OpenVMS,2013-03-23 02:20:00,
2013-03-22 22:25:00,32.5,18.0,29.46,WSW,253,3.6,3.6,54,0.00,,,0.00,WXlink_for_OpenVMS,2013-03-23 02:25:00,
2013-03-22 22:30:00,32.4,18.0,29.46,West,264,6.3,6.3,54,0.00,,,0.00,WXlink_for_OpenVMS,2013-03-23 02:30:00,
2013-03-22 22:35:00,32.4,18.0,29.46,WSW,244,4.0,5.4,54,0.00,,,0.00,WXlink_for_OpenVMS,2013-03-23 02:35:00,
2013-03-22 22:40:00,32.2,17.0,29.46,WSW,257,4.5,4.9,54,0.00,,,0.00,WXlink_for_OpenVMS,2013-03-23 02:40:00,
2013-03-22 22:45:00,32.2,17.0,29.46,WSW,257,3.6,4.0,54,0.00,,,0.00,WXlink_for_OpenVMS,2013-03-23 02:45:00,
2013-03-22 22:50:00,32.0,17.0,29.46,West,280,4.5,4.5,54,0.00,,,0.00,WXlink_for_OpenVMS,2013-03-23 02:50:00,
2013-03-22 22:55:00,31.8,17.0,29.46,WSW,243,3.6,4.9,54,0.00,,,0.00,WXlink_for_OpenVMS,2013-03-23 02:55:00,
2013-03-22 23:00:00,32.0,17.0,29.46,WSW,251,4.0,4.0,54,0.00,,,0.00,WXlink_for_OpenVMS,2013-03-23 03:00:00,
2013-03-22 23:05:00,31.8,17.0,29.46,WSW,250,4.0,4.0,54,0.00,,,0.00,WXlink_for_OpenVMS,2013-03-23 03:05:00,
2013-03-22 23:10:00,31.8,17.0,29.46,WSW,257,3.1,3.1,55,0.00,,,0.00,WXlink_for_OpenVMS,2013-03-23 03:10:00,
2013-03-22 23:15:00,31.6,17.0,29.46,WSW,245,4.0,4.0,55,0.00,,,0.00,WXlink_for_OpenVMS,2013-03-23 03:15:00,
2013-03-22 23:20:00,31.5,17.0,29.46,WSW,242,4.0,4.0,55,0.00,,,0.00,WXlink_for_OpenVMS,2013-03-23 03:20:00,
2013-03-22 23:25:00,31.3,17.0,29.46,SW,231,3.6,3.6,55,0.00,,,0.00,WXlink_for_OpenVMS,2013-03-23 03:25:00,
2013-03-22 23:30:00,31.3,17.0,29.46,WSW,251,3.6,3.6,55,0.00,,,0.00,WXlink_for_OpenVMS,2013-03-23 03:30:00,
2013-03-22 23:35:00,31.3,17.0,29.46,SW,229,4.0,4.0,56,0.00,,,0.00,WXlink_for_OpenVMS,2013-03-23 03:35:00,
2013-03-22 23:40:00,31.1,17.0,29.46,WSW,240,2.7,3.1,56,0.00,,,0.00,WXlink_for_OpenVMS,2013-03-23 03:40:00,
2013-03-22 23:50:00,31.1,17.0,29.46,SW,235,3.6,4.9,56,0.00,,,0.00,WXlink_for_OpenVMS,2013-03-23 03:50:00,
2013-03-22 23:55:00,30.9,17.0,29.46,SW,230,3.1,4.0,56,0.00,,,0.00,WXlink_for_OpenVMS,2013-03-23 03:55:00,